Tracking 29892 objects as of 21-Nov-2024
HD Live streaming from Space Station
objects crossing your sky now

ARIANE 2 DEB

Track ARIANE 2 DEB now!


NORAD ID: 28566
Int'l Code: 1989-006AH
Perigee: 602.5 km
Apogee: 35,291.9 km
Inclination: 7.1 °
Period: 629.0 minutes
Semi major axis: 24318 km
RCS: 0.1259 m2 (medium)
Launch date: January 27, 1989
Source: France (FR)
Launch site: FRENCH GUIANA (FRGUI)

Note: This is SATELLITE DEBRIS
Your satellite tracking list
Your tracking list is empty




NASA's NSSDC Master Catalog

Two Line Element Set (TLE):
1 28566U 89006AH  24325.08858927  .00000927  00000-0  14716-1 0  9991
2 28566   7.1213  38.2787 7132405 177.6290 189.6505  2.28932008172358
Source of the keplerian elements: AFSPC